Regional Weather Roundup
Issued by NWS

Home | Current Version | Previous Version | Text Only | Print | Product List | Glossary Off
Versions: 1 2 3 4 5 6 7 8 9 10 11 12 13 14 15 16 17 18 19 20 21 22 23 24 25 26 27 28 29 30 31 32 33 34 35 36 37 38 39 40 41 42 43 44 45 46 47 48 49 50

000
ASUS43 KMPX 302210
RWRMN
WEATHER ROUNDUP FOR MINNESOTA
NATIONAL WEATHER SERVICE TWIN CITIES/CHANHASSEN MN
500 PM CDT TUE AUG 30 2016


NOTE: "FAIR" INDICATES FEW OR NO CLOUDS BELOW 12,000 FEET WITH NO
SIGNIFICANT WEATHER AND/OR OBSTRUCTIONS TO VISIBILITY. N/A MEANS
CURRENT SKY AND/OR WEATHER CONDITIONS ARE NOT AVAILABLE.

MNZ060>063-068>070-302300-
   Twin Cities Metro

CITY           SKY/WX    TMP DP  RH WIND       PRES   REMARKS
TWIN CITIES    MOSUNNY   80  56  43 N8        30.14F
ST PAUL        SUNNY     78  57  48 NW7       30.14F
CRYSTAL        SUNNY     79  52  38 N8        30.14F
BLAINE         MOSUNNY   79  52  38 NW7       30.16S
LAKEVILLE      SUNNY     75  57  53 N9        30.15S
EDEN PRAIRIE   SUNNY     79  55  43 NW9       30.14F
LAKEVILLE      SUNNY     75  57  53 N9        30.15S
SOUTH ST PAUL  MOSUNNY   79  52  39 N9        30.14F
LAKE ELMO      FAIR      77  59  53 N6        30.16F
$$
MNZ001>005-007-008-013>017-022>024-027-028-302300-
   Northwest Minnesota

CITY           SKY/WX    TMP DP  RH WIND       PRES   REMARKS
BEMIDJI        SUNNY     73  52  46 N7        30.21S
HALLOCK        SUNNY     77  45  31 NW8       30.19F
ROSEAU         CLOUDY    75  52  43 W9        30.20S
WARROAD        SUNNY     73  54  49 W9        30.20S
THIEF RVR FALL SUNNY     76  50  40 NW10      30.21F
CROOKSTON      SUNNY     79  50  36 NW8       30.21S
FOSSTON        SUNNY     77  52  41 NW10      30.22S
DETROIT LAKES  SUNNY     75  52  43 N6        30.23S
MOORHEAD       SUNNY     79  50  36 N6        30.21S
MAHNOMEN       FAIR      74  55  50 NW8       30.21F
$$
MNZ006-009>011-018-025>026-302300-
   North Central Minnesota

CITY           SKY/WX    TMP DP  RH WIND       PRES   REMARKS
BAUDETTE       SUNNY     73  52  47 NW7       30.19S
FLAG ISLAND    SUNNY     72  46  40 NW5       30.18S
INTL FALLS     SUNNY     71  46  40 NW12      30.17S
WASKISH        SUNNY     73  55  53 W8        30.19S
BIG FORK       SUNNY     73  45  35 NW6       30.19S
LONGVILLE      SUNNY     73  52  46 N6        30.20S
GRAND RAPIDS   SUNNY     73  51  46 NW12      30.20S
CRANE LAKE     SUNNY     70  46  43 N3        30.18S
ORR            SUNNY     72  45  37 NW6       30.15S
COOK           SUNNY     72  48  43 NW8       30.18S
WALKER         FAIR      73  51  44 NW6       30.20S
$$
MNZ012-019>021-037-302300-
   Northeast Minnesota

CITY           SKY/WX    TMP DP  RH WIND       PRES   REMARKS
DULUTH         SUNNY     75  51  43 NW7       30.15F
ELY            SUNNY     70  45  40 NW5       30.16S
HIBBING        SUNNY     71  49  45 N10       30.17S
EVELETH        SUNNY     73  45  37 NW7       30.18S
DULUTH HARBOR  SUNNY     79  55  44 NW6       30.13S
TWO HARBORS    SUNNY     77  55  47 NW6       30.12S
SILVER BAY     SUNNY     75  52  43 SW3       30.11S
GRAND MARAIS     N/A     67  58  72 W10       30.10F
G MARAIS ARPRT SUNNY     70  43  37 NW8       30.15S
$$
MNZ029>031-032-039>041-046>048-054>057-064-302300-
   West Central Minnesota

CITY           SKY/WX    TMP DP  RH WIND       PRES   REMARKS
FERGUS FALLS   SUNNY     79  54  41 N9        30.20S
WHEATON        SUNNY     82  54  36 CALM      30.20F
MORRIS         SUNNY     82  52  34 N5        30.19S
ALEXANDRIA     SUNNY     78  51  38 N7        30.22S
ELBOW LAKE     FAIR      77  51  40 NE7       30.20F
WADENA         SUNNY     75  54  46 NW5       30.20S
GLENWOOD       SUNNY     77  52  41 N3        30.21F
APPLETON       SUNNY     81  52  36 N5        30.19S
BENSON         SUNNY     81  48  32 N6        30.19F
ORTONVILLE     SUNNY     81  52  36 CALM      30.19F
MADISON        SUNNY     81  54  39 N7        30.19F
WILLMAR        FAIR      79  52  38 N8        30.20S
$$
MNZ033>034-036-042>043-049>051-058-059-302300-
   Central Minnesota

CITY           SKY/WX    TMP DP  RH WIND       PRES   REMARKS
ST CLOUD       SUNNY     77  53  43 N7        30.17F
SAUK CENTRE    FAIR      77  53  43 NW6       30.20F
PAYNESVILLE    SUNNY     78  51  38 NW5       30.20S
AITKIN         SUNNY     77  48  36 NW7       30.18R
PINE RIVER     SUNNY     75  54  46 N8        30.22S
BRAINERD       SUNNY     76  50  40 NE7       30.19S
STAPLES        SUNNY     77  50  38 NW9       30.19F
LONG PRAIRIE   FAIR      75  54  46 W6        30.20F
LITTLE FALLS   SUNNY     77  46  33 NW7       30.18F
LITCHFIELD     SUNNY     79  57  47 N7        30.19S
BUFFALO        SUNNY     77  49  37 NW7       30.18F
MAPLE LAKE     SUNNY     78  54  43 NW5       30.19S
HUTCHINSON     SUNNY     78  57  48 N5        30.19S
$$
MNZ037-044-045-052-053-302300-
   East Central Minnesota

CITY           SKY/WX    TMP DP  RH WIND       PRES   REMARKS
PRINCETON      SUNNY     79  54  41 NW7       30.17S
MORA           SUNNY     73  52  46 NW9       30.18F
CAMBRIDGE      SUNNY     79  57  47 NW6       30.15S
RUSH CITY      SUNNY     77  54  45 NW5       30.15F
MOOSE LAKE     SUNNY     75  50  41 W6        30.15S
HINCKLEY       FAIR      77  54  44 NW5       30.16S
CLOQUET        SUNNY     73  46  38 W8        30.16S
MCGREGOR       SUNNY     77  50  38 NW6       30.18S
$$
MNZ071>073-080-081-089-090-097-098-302300-
   Southwest Minnesota

CITY           SKY/WX    TMP DP  RH WIND       PRES   REMARKS
MONTEVIDEO     SUNNY     82  57  42 NE6       30.21S
GRANITE FALLS  SUNNY     81  59  47 NW6       30.20S
CANBY          SUNNY     81  59  47 NE6       30.21S
MARSHALL       SUNNY     78  62  57 N7        30.19S
REDWOOD FALLS  SUNNY     80  58  46 N7        30.18S
OLIVIA         SUNNY     79  59  50 N6        30.18S
WINDOM         CLOUDY    79  63  57 N6        30.19F
WORTHINGTON    CLOUDY    77  66  68 NW5       30.20F
JACKSON        MOSUNNY   77  63  61 N5        30.19F
TRACY          SUNNY     78  63  59 N7        30.20S
SLAYTON        CLOUDY    77  63  61 N6        30.21S
$$
MNZ065>067-074>077-082>085-091>093-302300-
   South Central Minnesota

CITY           SKY/WX    TMP DP  RH WIND       PRES   REMARKS
NEW ULM        CLOUDY    77  57  50 NW10      30.17S
ST JAMES       CLOUDY    75  61  60 N6        30.18F
FAIRMONT       MOSUNNY   76  65  68 N5        30.18F
GLENCOE        SUNNY     77  57  50 N7        30.17S
FARIBAULT      MOSUNNY   79  57  47 N6        30.16F
OWATONNA       CLOUDY    77  55  47 N8        30.16S
WASECA         MOSUNNY   77  63  61 NW7G21    30.18S
ALBERT LEA     CLOUDY    79  63  57 N8        30.15S
$$
MNZ078>079-086>088-094>096-302300-
   Southeast Minnesota

CITY           SKY/WX    TMP DP  RH WIND       PRES   REMARKS
ROCHESTER      PTSUNNY   79  60  52 N9        30.15S
RED WING       MOSUNNY   79  61  53 NW6       30.12F
STANTON        MOSUNNY   77  57  50 NW8       30.14F
DODGE CENTER   MOSUNNY   75  61  60 NW10      30.16S
WINONA         MOSUNNY   79  61  53 NW8       30.11S
AUSTIN         PTSUNNY   75  64  69 N6        30.14F
PRESTON        CLOUDY    76  61  59 N12       30.14S
$$
ABBREVIATIONS USED IN REMARKS
   TC - TEMPERATURES IN CELSIUS
  WCI - WIND CHILL INDEX
   HX - HEAT INDEX
  VSB - VISIBILITY
$$




USA.gov is the U.S. government's official web portal to all federal, state and local government web resources and services.